CAPE
203 170 474 539 134 78 65 77 112 59 99 65 102 172 174 73 72 72 134 116 248 207 105 104 59 70 81 107 185 260 453 546 466 435 445 426 452 516 575 611 584 614 680 569 874 846 756 941 1174 1150 1151 1240 1416 1487 1387 1246 1033 1086 948 879 884 1023 1109 1246 640 562 622 534 508 639 862 746 607 503 620 925 750 462 454 401 336 195 126 121 122 77
40 168 252 82 5 8 40 67 78 83 86 138 166 208 135 182 207 147 115 159 171 416 50 133 102 98 129 136 146 212 355 392 404 436 416 376 432 480 482 494 482 602 633 639 1020 1282 1289 1138 1412 1401 1231 1454 1490 1434 1331 1133 1045 1084 1202 1025 854 966 1079 1028 988 921 1066 647 606 536 585 610 478 441 423 483 600 676 714 570 430 369 165 124 99 67
399 83 109 5 3 2 8 33 114 126 118 98 288 278 276 238 126 138 179 201 182 174 156 159 47 113 69 177 124 235 309 303 335 321 354 413 417 432 388 544 545 537 627 748 1018 1329 1494 1692 1521 1355 1347 1327 1216 1376 1219 1084 1087 1177 1182 1143 963 872 884 947 996 866 798 1043 1213 1046 943 663 610 886 857 773 878 884 756 692 478 432 375 187 83 79
227 54 0 2 4 10 7 29 82 108 136 241 128 316 295 118 255 249 234 256 245 317 152 46 108 62 233 224 242 247 247 278 230 264 362 322 328 300 297 405 502 505 612 865 1304 1404 1492 1721 1649 1353 1466 1377 1288 1160 1028 1125 1125 1084 922 1028 1097 951 1088 895 867 968 1065 1207 1318 1234 1228 1075 705 570 784 888 860 654 616 680 616 538 480 355 234 82
61 6 0 3 3 8 31 49 101 126 278 110 137 145 196 126 83 123 131 359 299 251 160 109 279 399 210 156 271 229 216 168 188 240 274 316 235 303 394 420 525 492 560 795 969 1418 1479 1590 1540 1473 1378 1508 1272 1082 919 1086 1024 853 960 986 1016 925 938 882 960 1086 1118 1224 1178 1128 1239 967 1006 737 553 445 520 544 586 550 694 710 613 511 402 230
1 1 1 0 0 0 20 59 70 76 14 128 78 82 152 126 128 241 305 384 251 449 216 312 545 538 346 264 100 206 207 228 251 264 248 271 217 208 286 364 383 499 753 913 959 1329 1383 1456 1532 1386 1460 1474 1006 958 1000 931 990 854 807 947 1045 925 983 901 1125 1152 1053 861 879 850 755 695 656 649 645 654 743 625 695 888 917 800 658 626 591 397
7 0 0 0 0 0 0 24 58 10 188 218 167 20 51 68 153 178 251 101 593 682 424 186 451 135 195 290 296 245 208 220 256 291 257 251 192 167 151 170 239 416 1037 986 1158 1160 1227 1363 1567 1562 1467 1174 718 841 915 922 1021 965 962 996 1040 961 986 1022 1108 1167 1104 1090 963 988 877 880 800 746 872 912 984 906 797 826 970 860 879 687 693 737
0 0 0 0 0 0 0 4 18 2 30 95 5 32 65 113 103 15 61 159 541 89 187 184 195 575 299 148 282 281 258 43 350 306 282 238 216 136 128 122 266 513 1140 906 1214 1190 1326 1502 1680 1549 1350 892 710 723 752 1048 1145 1170 1133 1197 1141 1006 937 845 1013 1086 1131 948 1125 1200 1198 980 847 826 979 990 1005 1162 955 959 946 907 912 881 886 851
3 0 0 0 0 0 0 0 21 10 15 81 14 25 76 17 22 46 82 526 234 102 541 278 252 417 513 245 236 284 272 148 407 272 182 262 220 182 145 117 258 470 871 851 1006 1256 1300 1557 1634 1358 1024 768 767 818 886 880 1140 1217 1264 1213 1264 1092 1095 1130 1217 1000 1067 1106 1094 1049 850 902 836 945 923 867 805 947 1116 1087 1094 1148 1154 1083 1078 931
0 0 0 0 0 0 0 0 0 0 61 4 97 82 118 151 167 215 190 428 48 189 371 378 124 437 340 403 310 236 248 356 429 206 280 262 235 223 171 178 292 670 825 723 1058 1104 1064 1256 1384 1258 1052 927 974 962 890 750 1012 1216 1240 1318 1275 1200 1058 1133 1360 1150 1170 1292 1190 1151 1186 983 906 914 976 938 1054 1066 1092 1107 1137 1084 1070 1062 1194 1144
0 0 0 0 0 0 0 0 3 2 36 11 101 122 131 167 241 160 106 446 503 132 537 100 196 208 336 131 264 287 225 290 232 174 297 255 270 239 202 239 428 508 668 845 962 765 874 1016 1433 1492 1220 1149 1156 1161 968 856 820 1008 1275 1291 1315 1206 962 1225 1258 1257 1277 1268 1182 927 1108 1109 999 1062 1056 1053 1094 1096 1186 1103 1091 1116 1120 1148 1168 1245
0 0 0 0 0 0 0 0 0 1 12 94 119 116 201 322 250 341 379 398 291 365 276 147 135 161 581 331 156 146 73 174 147 103 132 196 232 253 315 199 282 435 556 777 635 615 1042 1460 1650 1618 1398 1403 1386 1260 1135 937 852 945 1097 1252 1318 1328 1258 1266 1252 1351 1191 1112 1279 1200 1354 1305 1262 1233 1098 1129 1191 925 1086 1211 1197 1234 1115 1169 1208 1299
0 0 0 0 0 1 6 32 0 10 36 123 119 175 332 478 298 380 612 229 400 465 258 111 160 122 111 177 80 93 140 66 152 148 105 160 198 249 273 206 251 468 496 596 548 617 715 799 1141 1250 1401 1349 1446 1297 1259 1094 1063 961 1075 1233 1354 1321 1380 1324 1293 1444 1366 1359 1301 1303 1466 1474 1402 1424 1187 1096 1191 1084 1172 1132 1155 1305 1076 1114 1052 1228
0 0 0 0 0 0 62 70 27 93 46 91 136 246 301 299 144 0 255 45 316 244 151 138 169 235 287 184 112 111 108 124 234 184 139 114 214 259 246 293 392 523 520 601 620 610 484 459 619 828 1139 1222 1269 1202 1249 1258 1328 1225 1208 1350 1279 1218 1450 1456 1427 1350 1360 1455 1417 1596 1555 1553 1454 1628 1516 1382 1210 1272 1274 1289 1252 1203 1298 1294 1327 1278
0 0 0 0 0 0 35 75 3 0 63 49 42 137 418 46 337 6 151 21 68 176 191 168 136 412 458 192 54 121 99 140 191 165 346 654 481 347 240 223 301 406 492 508 654 636 599 626 535 722 1000 1001 1119 1203 1232 1408 1459 1407 1310 1402 1438 1170 1410 1474 1496 1418 1438 1397 1653 1640 1679 1625 1485 1441 1337 1453 1437 1523 1423 1353 1318 1362 1353 1452 1334 1300
0 2 0 0 0 0 0 0 0 0 0 28 66 70 65 371 199 123 472 233 371 388 378 206 190 305 417 40 73 81 38 93 110 180 204 238 274 502 313 224 231 326 338 427 670 782 794 823 739 842 979 999 1150 1265 1307 1349 1380 1527 1372 1435 1516 1273 1305 1468 1502 1441 1505 1564 1518 1878 1798 1514 1595 1475 1326 1353 1272 1437 1583 1459 1568 1418 1570 1547 1480 1478
0 4 13 0 0 0 0 0 0 1 110 172 1 74 134 108 30 57 330 502 513 44 5 122 160 84 85 16 30 45 28 86 94 137 76 58 95 145 92 124 185 247 314 443 729 828 920 955 951 983 862 976 1026 1269 1352 1330 1304 1509 1452 1471 1467 1298 1276 1404 1520 1585 1580 1625 1807 1996 1769 1510 1350 1384 1389 1405 1530 1566 1552 1657 1678 1590 1496 1506 1683 1604
44 56 0 0 0 0 0 0 0 0 39 0 24 110 18 9 93 123 154 80 50 48 114 37 104 431 41 142 5 52 59 84 104 101 83 54 116 91 128 204 172 232 304 434 599 912 1142 1157 1130 868 755 628 1006 1107 1360 1410 1398 1450 1557 1594 1544 1442 1458 1421 1441 1564 1604 1779 1882 1978 1914 1630 1314 1047 1119 1436 1443 1525 1651 1784 1722 1671 1827 1836 1610 1668
0 0 45 0 0 0 0 0 0 0 0 13 127 32 52 141 171 124 20 3 1 0 4 81 19 16 65 189 20 74 68 120 114 94 128 162 56 38 152 279 374 383 503 548 565 906 1035 1192 1102 990 933 694 826 884 1207 1229 1324 1328 1413 1457 1493 1505 1506 1517 1529 1570 1657 1748 1629 1588 1645 1380 1360 1470 1468 1390 1568 1703 1556 1462 1567 1686 1666 1741 1823 1773
6 5 100 0 0 0 0 0 17 10 0 0 0 6 12 59 330 411 98 252 148 6 0 146 9 182 24 212 44 14 96 126 147 172 138 116 56 43 79 266 807 931 1123 771 664 966 1082 1151 1102 1143 1192 951 1032 818 820 1204 1245 1300 1418 1447 1492 1416 1336 1420 1578 1615 1616 1411 1383 1417 1380 1408 1286 1240 1276 1598 1672 1587 1552 1599 1611 1565 1702 1916 1776 1987
147 54 3 36 0 0 32 0 0 21 47 11 9 72 28 252 66 25 144 24 183 71 8 0 0 174 173 19 29 23 55 120 148 193 138 107 97 86 92 248 780 1317 1474 917 800 880 1110 1323 1265 1274 1382 1025 1017 883 898 1274 1266 1179 1225 1320 1284 1573 1520 1534 1307 1255 1198 1318 1278 1361 1403 1365 1455 1511 1558 1549 1567 1596 1612 1705 1482 1612 1873 1758 2153 2126
25 85 0 48 7 0 43 27 34 37 195 40 24 68 63 197 79 2 66 1 0 3 14 0 11 156 146 1 11 22 80 130 103 105 173 104 102 160 214 754 1400 1591 1509 1150 958 876 1260 1742 1608 1672 1406 1048 1006 1022 1159 1335 1265 1004 1104 999 1146 1107 956 1045 1297 1298 1186 1410 1413 1286 1342 1453 1475 1731 1570 1598 1781 1664 1547 1616 1699 2023 2138 2223 2060 2090
133 181 48 10 99 144 275 62 28 19 0 133 340 138 47 108 36 68 40 141 53 37 14 89 36 38 138 221 438 630 481 62 103 94 142 134 194 342 854 1717 1869 1908 1718 1554 1402 1161 1569 2008 1778 1592 1327 1208 1110 1137 1208 1228 1105 956 1143 959 1016 1022 1046 1106 1162 1077 1099 1230 1295 1376 1447 1554 1807 1642 1689 1734 1721 1694 1545 1655 1999 2011 2240 2126 1953 1776
0 38 32 19 103 60 205 35 73 0 8 16 43 263 205 120 103 211 292 334 34 349 41 179 7 10 315 802 830 949 840 553 488 604 167 144 216 580 1201 1748 1730 2036 2046 1834 1632 1532 1900 1962 1706 1418 1249 1122 937 952 1076 1177 1030 955 1120 959 919 996 1044 1057 1097 1018 1138 1255 1218 1265 1507 1784 1656 1715 1748 1708 1733 1748 1798 1928 2308 2085 2060 1855 1691 1446
0 47 108 120 138 220 158 136 406 269 49 114 136 198 512 603 721 1026 339 326 25 220 166 77 0 45 1302 698 292 481 586 428 286 309 738 263 925 1149 1356 1422 1576 2147 2139 1728 1700 1858 1873 1477 1322 1159 1023 893 765 843 1165 1080 854 957 1059 1004 942 980 1065 992 939 1099 1032 1011 1183 1530 1721 1628 1636 1704 1702 1712 1696 1975 2213 2327 2230 1956 1799 1665 1402 1072
0 105 77 61 81 97 60 75 91 109 46 231 1266 1193 842 598 998 252 93 195 8 516 91 61 37 134 467 696 683 637 532 511 464 431 386 574 820 1214 1555 1575 1752 2111 1973 1659 1732 1995 1915 1455 1228 1009 1042 827 751 632 839 997 792 851 899 1099 1105 1034 912 889 1006 1012 953 992 1285 1502 1476 1603 1739 1684 1749 1725 1977 2298 2297 2342 2048 1748 1580 1359 1112 829
189 625 336 65 94 285 223 303 548 1001 183 164 820 885 748 1061 798 652 436 232 171 520 146 189 204 196 74 52 22 383 609 564 846 783 490 414 1200 1340 1809 1836 1907 1975 1996 1713 1787 1938 1856 1480 1323 954 1068 764 743 506 423 556 711 727 805 980 1155 1148 967 987 1256 983 1054 1231 1292 1229 1366 1453 1612 1657 1758 1954 2253 2459 2213 1946 1792 1518 1244 980 706 378
428 220 156 412 168 263 207 492 1009 1126 550 199 720 956 898 1168 1355 953 122 375 315 97 63 432 386 206 164 14 36 126 486 709 957 973 571 332 928 1130 1470 1767 1527 1869 1971 1925 1912 1935 1825 1630 1465 1214 1215 1050 686 481 148 236 370 576 737 841 1101 906 901 1080 1134 956 1019 1216 1343 1344 1362 1459 1637 1876 2083 2404 2447 2150 1972 1779 1514 1339 1044 691 404 154
330 54 252 672 590 469 478 791 852 567 883 883 658 1281 1163 1042 1042 954 465 969 428 126 157 803 479 326 155 37 77 216 698 1140 839 1165 713 590 768 1090 1404 1347 1390 1699 1878 1858 1987 2001 1818 1674 1740 1575 1383 1338 1020 620 276 203 252 434 632 771 835 808 1028 1489 1230 968 1072 1224 1348 1383 1359 1650 1945 2236 2415 2214 2073 2022 1809 1549 1413 1071 824 583 280 33
576 182 963 274 618 321 351 409 321 545 672 897 950 935 986 1015 976 802 916 1043 541 1120 1768 1040 874 404 118 109 62 1745 828 1010 1268 1302 1112 919 1019 998 1178 1225 875 1314 1636 1624 1839 1940 1958 1770 1924 1980 1820 1759 1471 1019 556 348 231 334 611 712 666 775 967 875 964 964 1045 1140 1249 1356 1529 1916 2171 2051 2132 1952 2023 1761 1578 1406 1095 836 578 230 23 0
304 772 357 370 279 480 405 338 395 526 716 908 1498 1678 1657 1285 1075 1337 1500 1082 1400 1201 1350 1236 1083 530 198 172 604 1652 1140 615 1075 746 756 641 582 669 821 992 957 764 989 1396 1833 1844 1930 1898 1958 2086 2052 2015 1741 1334 976 563 402 521 687 766 830 815 764 682 1104 1069 1118 1139 1086 1218 1590 1814 1966 1895 1830 1812 1674 1596 1358 1106 944 649 265 70 0 0
406 655 547 639 122 387 443 361 458 802 839 834 1009 1114 1122 1342 1095 1164 548 950 515 492 1274 1377 701 243 281 1000 1487 1543 1313 1044 1046 1271 1209 965 736 804 754 756 944 970 1015 1138 1486 1758 1804 1755 1923 2073 2072 1863 1892 1587 1167 906 518 689 760 609 649 737 750 775 861 968 1105 1138 1089 1433 1540 1679 1800 1670 1600 1586 1461 1234 946 960 753 446 177 9 0 0
631 533 348 361 160 50 425 516 540 596 657 561 742 987 1260 1063 779 1259 1036 1489 884 562 860 223 104 293 635 461 318 1485 1204 1194 1209 1242 1682 1275 964 860 859 798 787 1010 1239 1280 1318 1498 1518 1430 1779 2115 2162 1936 1748 1480 1062 841 529 511 708 684 659 526 568 858 1150 1192 1096 1041 1059 1483 1391 1587 1667 1411 1514 1393 1163 862 846 710 502 344 66 0 0 0
605 688 208 367 139 195 154 456 656 450 103 178 1071 1048 1465 1174 1412 1071 967 1298 1354 1518 536 888 870 1861 1329 756 263 220 712 734 1177 2258 1965 1621 1439 1300 1050 954 861 930 1265 1729 1786 1541 1496 1448 1588 2000 2348 2124 1706 1300 821 442 274 316 407 364 586 550 722 1191 1226 993 914 1037 1154 1332 1438 1569 1410 1301 1376 1134 883 788 640 484 426 184 7 0 0 0
869 669 473 508 107 60 750 604 196 115 306 1217 544 498 425 634 895 876 745 1745 1588 1518 1198 806 758 566 1379 1187 1326 1538 1712 1543 1400 1213 1615 1447 1627 1530 1500 1492 1348 1097 1500 2196 2132 1766 1785 2034 1994 2166 2512 2369 1621 1246 769 230 110 208 271 336 474 701 1026 1030 781 856 970 1120 1200 1241 1453 1489 1244 1275 1154 880 748 633 474 454 414 48 0 0 0 0
644 285 323 136 129 292 89 164 8 43 1040 598 611 858 684 476 537 1079 1038 1257 1483 1265 1026 992 1044 1051 1161 1080 814 663 672 812 790 1159 1063 984 963 1041 1314 1820 1751 1846 1960 2150 2376 2382 2458 2498 2495 2496 2788 2502 1942 1338 752 391 208 241 340 549 661 858 851 621 596 746 1060 1283 1368 1270 1496 1337 1231 1179 991 744 596 436 401 581 280 7 0 0 0 0
814 685 327 283 301 142 104 73 68 426 818 1022 1314 921 894 1686 1583 1699 400 1532 1475 1343 1316 1290 1138 822 722 733 697 705 793 767 744 1488 1319 1021 1202 644 741 1000 1371 1951 2197 2294 2328 2746 2846 2968 2867 2870 2898 2865 2378 1905 1524 815 649 497 306 295 406 522 635 606 552 588 1030 1453 1348 1310 1398 1256 1152 1055 864 597 426 349 578 532 14 0 0 0 0 1
712 571 509 340 201 297 125 26 312 204 44 922 751 938 761 874 731 940 999 1588 1077 1141 1123 1347 1400 1208 1050 874 738 1046 880 443 410 1186 1451 1360 1570 1107 696 548 576 747 1249 1697 2038 2137 2753 3100 3072 3075 3020 3079 2834 2510 1998 1357 1160 905 466 531 650 661 600 585 707 690 937 1379 1318 1393 1345 1189 1018 885 585 490 334 414 454 116 4 0 0 0 32 30
635 716 506 147 341 117 65 87 78 39 164 776 1251 645 927 669 849 1133 699 804 1002 1087 1097 1071 1080 1182 1159 961 1042 898 814 508 442 1173 1651 1767 1655 1395 990 520 402 696 886 1044 1344 1530 1548 2028 2581 2794 2843 2922 2927 2784 2423 2121 1758 1290 826 766 759 614 645 642 734 827 860 1266 1288 1255 1249 1062 869 656 436 194 90 333 127 6 0 0 0 0 0 25
902 729 481 324 350 115 183 69 97 224 160 1021 929 1010 556 688 73 989 504 448 740 1076 1095 1128 1050 1125 1206 1056 848 987 1400 807 1314 1188 1637 1907 1590 1590 1515 1207 888 474 404 579 1000 1128 1179 1668 1964 1805 2110 2342 2648 2806 2501 2262 1803 1629 1331 1190 1188 968 809 934 952 929 992 1297 1235 1109 977 872 629 440 193 14 198 141 6 3 0 54 0 0 0 68
716 524 415 464 67 48 18 19 44 63 398 717 881 781 211 325 608 371 235 1199 1084 1158 1183 1186 1017 1028 1081 960 1066 1378 1007 923 1126 1407 1528 1228 1165 1040 1080 1150 1132 1031 828 530 429 165 478 879 1177 1224 1433 1639 1790 1935 2106 1918 1689 1742 1541 1554 1489 1459 1270 1218 1246 1064 1079 958 841 630 524 401 249 11 3 14 5 7 0 0 0 0 7 0 0 7
921 438 162 425 395 475 398 93 91 73 264 176 887 604 899 223 68 66 1054 885 1086 1150 1094 1340 1261 1012 1192 887 830 752 844 1096 1063 1234 1144 1071 1089 1073 834 912 824 909 1139 1084 773 662 890 843 1043 1054 967 1237 1215 1329 1462 1347 1327 1353 1477 1468 1593 1768 1403 1147 982 840 718 510 369 309 142 18 0 0 0 0 87 0 0 0 0 0 0 22 4 0
197 132 261 217 309 154 89 82 1 4 180 86 626 816 826 1043 950 783 835 953 851 1030 1212 1198 1254 1291 1162 1247 1232 1230 989 918 989 1094 1034 955 1015 1089 1135 1084 1166 1041 1128 1195 1033 690 764 1118 1134 1287 1351 1315 1004 846 780 962 966 936 1014 1369 1774 1199 939 658 671 466 308 89 17 24 0 0 0 0 0 0 0 0 0 0 2 0 0 0 16 16
225 189 190 63 61 99 13 11 40 181 235 327 855 845 673 393 442 496 566 664 702 851 848 970 918 1038 1150 1350 1266 1431 1411 1401 1268 1260 1162 1079 1243 1202 1222 1251 1164 1144 1034 1002 863 660 772 911 854 941 703 111 261 476 599 782 704 757 1000 1279 744 607 516 476 384 242 70 61 64 63 0 0 0 0 0 0 0 0 0 5 1 0 1 3 20 37
65 147 83 98 73 90 146 270 125 253 153 77 171 85 76 3 13 32 153 420 430 396 412 461 378 613 870 1255 1400 1497 1606 1483 1428 1541 1320 1339 1444 1483 1338 1195 1171 1172 1082 1111 903 609 682 601 659 149 45 70 71 13 3 589 743 891 839 932 108 271 194 166 89 11 40 56 4 0 0 0 0 0 0 0 0 0 15 12 0 4 0 0 9 21
44 91 116 89 181 106 46 204 211 39 5 66 64 184 56 8 253 74 22 333 340 410 377 360 357 383 369 676 707 931 1327 1409 1381 1563 1262 1378 1445 1653 1564 1322 1285 1244 1124 1035 834 622 609 694 657 547 26 34 54 77 32 428 815 744 917 267 11 78 42 34 14 0 0 0 0 0 0 0 0 0 0 0 0 2 1 3 4 0 0 0 11 4
24 49 60 56 88 55 92 18 20 4 7 248 300 266 253 238 287 280 325 305 340 345 367 363 356 346 355 354 347 317 579 536 786 1191 1502 1507 1464 1479 1363 1404 1444 1243 978 882 477 620 687 667 644 271 356 118 40 61 86 36 15 62 299 2 0 0 18 28 20 34 16 0 0 0 0 0 0 0 0 0 0 0 0 0 0 0 0 4 7 1
49 33 49 85 72 70 40 16 22 6 0 79 184 336 329 313 283 294 296 306 291 298 308 349 317 233 253 208 292 312 350 336 312 483 1008 1304 1455 1484 1514 1343 1287 1117 776 562 430 216 451 547 480 164 44 59 43 60 41 57 59 48 9 0 0 0 0 0 0 0 0 16 27 6 0 0 0 0 0 0 0 0 0 0 0 0 0 0 0 0
1 5 61 5 60 73 54 35 34 6 15 76 62 19 113 134 136 72 132 61 88 18 170 207 219 225 183 259 249 206 164 211 279 254 199 771 1057 1050 1055 987 871 152 109 53 356 527 25 18 19 0 0 46 33 30 17 32 18 0 0 0 0 0 0 0 1 6 11 9 0 0 0 0 0 0 0 0 0 4 0 0 0 0 3 2 5 4
12 2 2 2 26 55 69 69 46 67 85 60 54 76 100 71 38 58 48 20 15 35 14 12 13 38 31 28 72 292 77 153 224 230 210 193 194 508 552 883 929 786 57 28 15 106 277 196 214 124 18 4 1 0 0 0 0 0 0 0 0 9 29 41 44 19 2 0 0 0 0 0 0 0 0 0 0 0 0 0 1 0 1 2 3 4
0 0 4 7 0 3 11 32 7 0 4 4 2 0 0 2 5 2 4 12 6 0 0 3 5 2 0 227 237 141 167 226 273 402 515 176 414 713 949 911 822 852 922 346 156 24 9 502 384 262 220 16 0 0 0 0 1 3 0 0 0 0 18 14 0 0 0 0 0 0 0 0 0 0 1 0 0 0 0 0 0 0 0 0 2 4
Wind_Speed
14 19 17 14 11 nan nan nan 9 nan nan nan 11 10 3 nan nan nan 5 7 9 9 5 5 nan nan nan 10 11 12 13 13 12 12 11 11 11 11 10 10 9 8 8 8 6 5 6 5 6 6 6 6 6 7 7 7 7 7 6 7 8 9 11 12 12 12 12 13 12 13 12 12 12 12 11 11 11 11 10 10 11 12 12 12 12 nan
nan 19 17 nan nan nan nan nan nan nan nan 12 8 8 6 6 1 1 4 7 9 13 nan 7 8 nan 10 11 12 13 15 16 15 14 13 14 13 11 11 11 10 9 7 6 5 6 5 4 6 5 5 6 7 6 7 8 8 8 7 8 8 9 10 12 13 13 13 14 14 15 13 14 14 14 13 13 13 13 12 12 12 13 13 13 nan nan
15 nan 11 nan nan nan nan nan 12 10 8 nan 9 6 5 2 1 2 3 8 8 16 7 11 nan 13 nan 15 15 16 17 15 15 15 15 15 14 12 11 10 9 8 7 6 5 5 4 5 6 5 5 6 6 7 8 8 9 8 7 8 8 9 11 12 13 15 14 15 15 15 15 15 15 14 15 15 15 15 14 14 14 14 15 14 nan nan
12 nan nan nan nan nan nan nan nan 7 8 7 7 9 4 4 9 5 6 10 10 13 7 nan 15 nan 14 13 15 17 18 16 17 17 15 14 13 12 12 10 9 9 8 7 5 5 5 4 5 5 5 6 6 7 7 8 9 7 8 9 10 10 11 12 13 14 15 15 15 16 16 16 16 15 15 15 15 14 14 14 15 15 15 16 15 nan
nan nan nan nan nan nan nan nan 9 7 6 7 7 5 4 9 nan 4 9 9 9 10 12 12 14 14 16 17 16 19 20 18 17 17 15 14 13 12 8 7 8 8 6 4 4 5 4 4 6 7 6 5 6 7 7 8 8 7 9 9 11 11 12 12 13 15 15 16 16 16 17 16 16 15 14 14 13 13 13 14 14 14 15 15 15 15
nan nan nan nan nan nan nan nan nan nan nan 4 nan nan 5 9 9 6 10 11 11 13 15 17 13 12 18 19 18 18 20 19 17 19 18 16 14 13 11 9 8 8 5 4 3 5 5 4 4 6 6 6 7 7 7 7 8 7 8 10 11 12 12 13 14 15 16 16 15 15 15 14 13 12 12 11 12 12 12 12 13 12 13 13 13 14
nan nan nan nan nan nan nan nan nan nan 7 7 4 nan nan nan 8 9 12 12 9 6 11 13 12 6 14 18 18 20 22 21 19 19 18 16 14 13 11 9 8 6 4 2 2 4 4 3 4 6 7 8 7 6 6 7 7 8 9 10 12 12 12 12 13 14 15 14 14 13 13 12 11 11 10 11 11 11 11 11 11 11 12 12 11 11
nan nan nan nan nan nan nan nan nan nan nan nan nan nan nan 9 9 nan nan 10 0 nan 10 14 11 9 8 14 15 17 19 nan 19 19 17 14 13 12 10 9 6 5 4 4 5 5 4 3 5 6 7 7 6 6 6 6 7 9 9 11 12 12 12 12 12 13 14 13 13 12 12 12 11 10 10 11 12 12 12 11 11 12 11 11 11 10
nan nan nan nan nan nan nan nan nan nan nan nan nan nan nan nan nan nan nan 6 1 8 10 11 12 12 6 12 14 15 17 16 18 19 17 14 13 12 11 9 6 4 4 5 5 6 5 4 4 5 5 6 4 5 6 7 8 9 11 11 11 12 11 11 12 12 12 12 12 13 12 12 12 12 12 13 13 13 13 13 12 13 12 12 12 11
nan nan nan nan nan nan nan nan nan nan nan nan nan nan 6 7 8 9 9 4 nan 7 5 8 12 10 4 11 15 13 13 14 16 18 16 15 13 12 10 7 4 3 4 5 6 5 4 4 3 3 3 3 4 5 6 7 7 9 10 10 10 10 10 10 11 12 11 11 13 13 12 11 11 12 12 12 12 13 14 12 13 13 13 12 12 12
nan nan nan nan nan nan nan nan nan nan nan nan 4 3 5 6 5 6 9 6 5 6 4 nan 9 10 3 8 12 13 9 8 10 12 12 13 13 12 9 8 6 5 5 5 6 5 4 3 3 2 2 2 3 5 7 7 8 8 9 9 9 9 9 9 10 11 11 11 12 12 12 11 11 11 11 12 12 12 13 13 13 13 12 12 12 12
nan nan nan nan nan nan nan nan nan nan nan nan 6 5 3 4 4 5 3 5 7 4 4 2 6 11 9 8 10 8 nan 7 5 10 11 12 12 12 9 7 7 6 5 7 7 6 5 3 2 2 1 3 3 5 6 8 8 8 7 7 7 7 8 8 9 10 10 11 11 11 12 11 10 10 12 11 12 12 12 13 14 15 15 14 14 14
nan nan nan nan nan nan nan nan nan nan nan 7 7 6 8 3 4 3 4 5 4 4 6 4 6 9 10 5 nan nan 12 nan 8 4 9 11 11 10 10 8 6 6 7 7 6 6 5 4 3 3 2 3 4 5 6 7 7 7 6 5 5 5 6 7 8 9 10 10 10 10 11 12 10 11 12 11 12 12 12 15 15 16 17 18 18 17
nan nan nan nan nan nan nan nan nan nan nan nan 7 7 6 0 2 nan 1 nan 1 6 4 4 7 11 5 12 11 12 11 8 9 10 6 6 9 9 8 8 7 8 8 8 7 7 6 4 3 3 2 3 4 5 6 5 6 7 6 4 4 4 6 6 7 8 9 9 9 9 10 10 11 11 11 10 10 11 13 15 16 17 18 19 20 20
nan nan nan nan nan nan nan nan nan nan nan nan nan 6 5 nan 4 nan 0 nan nan 5 5 6 9 7 9 7 nan 9 nan 9 9 12 11 6 6 7 8 9 10 11 10 9 8 7 6 5 4 2 2 3 4 4 4 5 5 5 4 3 3 3 5 6 6 7 8 8 9 9 10 10 11 11 10 9 9 11 13 14 15 17 18 19 19 19
nan nan nan nan nan nan nan nan nan nan nan nan nan nan nan 1 4 7 8 6 5 2 2 7 4 3 4 nan nan nan nan nan 12 13 13 11 8 8 7 9 10 11 10 10 10 9 7 5 4 1 1 2 3 3 3 3 3 3 3 2 2 3 4 5 6 6 7 8 8 9 9 9 10 9 8 7 8 10 12 13 15 16 18 19 19 19
nan nan nan nan nan nan nan nan nan nan 7 6 nan nan 6 8 nan nan 2 4 2 nan nan 3 6 nan nan nan nan nan nan nan nan 15 nan nan nan 9 nan 10 12 12 11 10 11 10 9 7 4 2 1 1 1 1 1 1 1 1 1 0 2 3 4 5 6 6 7 7 8 9 9 9 10 9 8 7 7 9 10 12 13 14 16 17 18 18
nan nan nan nan nan nan nan nan nan nan nan nan nan 10 nan nan nan 3 4 nan nan nan 4 nan 3 6 nan 6 nan nan nan nan 17 16 nan nan 14 nan 10 10 11 12 13 13 12 12 12 10 7 4 3 2 1 0 1 1 2 2 1 1 2 3 5 5 6 6 7 7 8 9 10 9 9 9 7 6 6 6 7 9 10 12 14 14 14 15
nan nan nan nan nan nan nan nan nan nan nan nan 12 nan nan 6 4 7 nan nan nan nan nan nan nan nan nan 8 nan nan nan 17 17 nan 16 17 nan nan 12 10 9 10 11 13 14 13 13 12 11 7 6 4 3 2 2 3 4 4 3 3 3 4 4 5 5 6 6 7 7 8 9 9 9 7 6 4 3 3 5 5 6 8 9 10 12 13
nan nan nan nan nan nan nan nan nan nan nan nan nan nan nan nan 8 7 nan 7 4 nan nan 3 nan 3 nan 6 nan nan nan 16 16 16 17 18 nan nan nan 11 11 11 11 13 15 15 16 15 14 12 9 7 7 5 4 5 6 6 6 6 5 5 5 5 6 6 6 8 8 8 8 8 7 7 5 3 2 2 2 2 3 4 6 9 11 13
15 nan nan nan nan nan nan nan nan nan nan nan nan nan nan 8 nan nan 9 nan 6 nan nan nan nan 3 12 nan nan nan nan 16 16 16 15 15 nan nan nan 12 11 12 11 13 14 15 16 16 15 13 12 9 8 7 7 7 7 8 7 7 6 6 6 6 6 7 6 8 8 8 8 8 7 6 4 3 2 2 2 3 4 6 8 11 13 14
nan nan nan nan nan nan nan nan nan nan 14 nan nan nan nan 10 nan nan nan nan nan nan nan nan nan 7 14 nan nan nan nan 15 15 16 14 15 17 16 14 13 13 12 12 12 13 14 15 16 15 14 12 9 8 8 8 9 8 8 8 7 7 6 5 6 7 6 7 7 7 8 7 7 7 6 4 3 3 3 3 4 6 8 10 12 15 16
16 15 nan nan nan 15 24 nan nan nan nan 14 11 9 nan 10 nan nan nan 13 nan nan nan nan nan nan 14 6 4 7 8 nan 13 nan 14 14 17 16 15 14 13 13 13 13 13 13 14 16 16 15 15 13 11 9 9 9 8 8 8 6 7 6 6 6 7 7 6 6 6 6 6 6 6 6 6 5 5 5 5 6 8 10 11 14 16 16
nan nan nan nan 17 nan 21 nan nan nan nan nan nan 10 11 10 9 7 8 15 nan 10 nan 6 nan nan 12 6 6 7 6 8 8 6 12 14 15 16 15 15 14 13 14 13 12 12 12 14 15 14 15 13 11 10 10 9 8 7 7 6 6 6 6 6 5 5 5 4 4 5 6 6 6 7 7 7 7 8 8 8 10 12 14 16 17 18
nan nan 12 15 16 18 19 19 19 21 nan 10 9 13 10 12 13 13 13 13 nan 9 6 nan nan nan 14 6 8 8 8 9 11 11 6 13 14 14 14 14 13 14 14 15 14 14 14 14 16 15 14 13 11 10 11 10 9 7 6 5 5 5 5 4 4 3 3 3 4 5 6 6 7 8 8 9 8 9 10 11 13 14 16 17 19 20
nan 20 nan nan nan nan nan nan nan 15 nan 13 14 13 11 11 13 12 nan 11 nan 14 nan nan nan 11 17 9 8 9 8 10 13 13 12 9 13 13 13 13 13 13 14 15 15 14 14 15 14 14 13 12 11 10 11 10 9 8 6 5 4 3 3 3 2 2 3 4 5 6 7 7 8 9 9 9 10 11 11 13 15 17 18 19 20 21
23 21 15 nan nan 9 13 19 19 15 17 8 10 10 13 9 10 7 7 6 8 15 8 9 8 10 nan nan nan 10 9 9 14 14 14 13 13 12 12 12 12 12 14 15 15 13 13 13 14 14 13 11 10 10 9 9 9 7 6 6 5 3 3 3 3 4 4 5 6 7 8 8 9 9 9 10 11 12 13 15 17 18 20 20 22 23
24 21 17 16 12 15 25 22 20 14 16 11 10 11 14 13 12 9 10 10 16 nan nan 14 14 6 8 nan nan 9 11 11 12 14 13 13 14 13 14 13 13 12 13 13 14 15 15 14 14 13 13 11 9 9 8 9 8 7 6 7 6 5 4 3 5 6 6 6 7 7 8 8 9 9 10 12 13 14 16 17 19 20 21 22 23 25
24 nan 24 20 17 23 26 26 22 19 19 18 12 17 16 16 14 11 9 15 12 9 9 19 14 8 8 nan nan 11 15 13 12 13 13 13 14 15 15 15 14 12 13 14 14 14 14 15 14 13 12 11 9 9 8 8 8 6 6 6 7 7 8 7 7 8 8 8 8 8 8 9 10 12 13 15 16 18 19 20 21 22 23 24 25 nan
27 24 26 18 21 23 26 24 24 19 22 20 19 18 19 18 16 13 13 13 10 11 17 15 13 7 8 9 nan 14 14 14 15 15 16 15 16 16 15 14 13 13 13 14 15 15 14 14 14 14 13 11 10 9 9 8 8 8 8 8 9 10 11 11 10 10 10 10 10 10 11 13 14 14 16 18 19 21 22 22 23 24 25 26 nan nan
26 30 28 22 21 25 28 28 25 21 22 23 24 23 21 19 17 15 14 15 14 12 13 15 12 9 8 9 10 14 13 13 14 13 13 14 15 16 15 14 12 13 14 13 14 15 15 14 14 14 14 13 11 10 9 9 9 10 11 11 12 12 12 13 13 12 11 11 11 12 13 15 16 18 20 21 22 24 24 25 25 25 26 nan nan nan
27 31 28 25 25 27 31 26 28 26 23 23 26 23 22 21 18 18 14 14 13 11 16 15 11 10 17 14 13 11 11 10 11 13 14 14 15 15 14 13 12 12 12 14 15 16 16 16 15 15 15 15 13 12 10 10 10 11 11 12 13 13 14 14 14 13 13 12 13 14 15 16 19 20 22 24 25 26 26 26 27 27 28 nan nan nan
31 29 29 28 26 nan 33 29 28 28 26 27 25 21 21 21 18 20 17 16 12 11 14 15 10 19 20 11 11 13 12 11 11 12 14 14 15 15 14 13 12 11 11 12 14 16 17 16 16 15 15 14 14 13 13 12 11 11 11 12 12 14 15 15 14 14 14 14 14 15 16 18 20 21 24 25 26 27 28 29 29 30 nan nan nan nan
33 30 28 28 28 31 37 30 30 26 25 30 35 30 22 20 20 19 18 16 15 14 12 16 16 21 17 15 13 16 11 13 13 16 16 16 15 12 11 11 10 10 10 12 13 15 15 14 14 15 16 16 15 14 13 13 12 12 12 12 14 14 16 17 16 15 15 15 16 17 19 21 22 24 26 27 29 30 30 31 32 33 nan nan nan nan
34 35 33 33 30 nan 37 33 29 27 28 40 34 30 27 26 22 19 23 29 25 19 12 10 10 16 21 18 19 17 17 18 17 16 18 19 16 14 12 10 11 10 11 13 13 13 15 15 15 17 18 17 16 15 14 14 14 15 14 14 16 17 17 18 18 18 17 17 18 19 22 24 25 27 29 30 31 31 32 32 34 nan nan nan nan nan
38 34 34 32 33 36 nan 30 nan nan 43 41 38 34 32 29 29 27 31 33 30 26 21 16 17 18 18 18 16 16 15 16 16 25 29 26 22 18 15 13 12 12 12 13 13 14 15 17 17 19 19 19 18 16 16 16 17 17 17 17 17 19 19 19 20 20 20 20 20 22 25 26 28 29 31 32 32 32 33 34 35 nan nan nan nan nan
35 34 30 35 38 34 32 nan nan 42 41 41 37 37 34 33 31 28 26 32 31 29 25 24 22 21 18 16 18 16 16 15 18 31 32 31 27 23 17 15 16 15 13 13 13 13 15 17 18 18 19 20 18 17 17 18 19 18 18 18 18 19 20 20 19 20 21 21 22 23 26 28 30 31 33 33 33 33 34 36 nan nan nan nan nan nan
38 36 40 35 38 36 33 nan 33 40 nan 40 42 38 35 31 30 28 27 33 35 33 30 27 26 25 23 21 20 20 15 16 15 29 30 30 28 26 23 20 16 15 17 18 19 18 17 17 17 18 19 20 19 18 19 21 22 21 20 19 20 20 19 19 20 20 21 22 23 25 28 30 32 33 34 34 34 35 36 37 nan nan nan nan nan nan
42 42 41 35 37 38 nan nan nan nan 44 46 42 38 37 34 31 31 27 30 34 33 33 32 31 30 28 24 23 20 17 13 24 32 29 27 27 27 26 28 24 24 22 22 22 21 19 19 19 19 19 19 19 21 22 24 25 24 21 20 20 19 19 19 20 22 22 24 26 28 30 32 33 34 35 35 nan 36 38 nan nan nan nan nan nan nan
38 37 40 40 41 42 41 nan nan 45 43 45 43 40 40 39 nan 31 29 34 34 33 33 34 33 32 32 30 24 25 26 22 31 30 28 27 29 30 30 31 31 28 26 27 28 25 23 22 22 22 21 21 21 24 25 27 27 25 22 22 22 21 20 21 22 24 25 27 29 31 32 32 34 35 36 nan 38 39 nan nan nan nan nan nan nan nan
38 41 38 37 nan nan nan nan nan nan 47 47 45 43 44 39 37 36 33 43 36 33 33 33 34 33 33 35 33 32 31 29 29 29 30 32 32 35 35 34 35 33 32 31 30 27 24 24 24 24 24 25 27 28 29 28 27 26 25 25 25 24 24 27 30 31 33 33 35 35 35 36 37 nan nan nan nan nan nan nan nan nan nan nan nan nan
37 41 42 41 39 39 40 nan nan nan 47 45 46 47 47 42 nan nan 46 37 37 35 36 34 33 33 32 34 34 34 31 29 29 30 33 34 34 33 35 35 35 37 36 35 35 32 29 27 27 27 28 28 31 33 33 33 31 29 29 29 28 30 33 35 37 38 37 38 40 41 42 nan nan nan nan nan nan nan nan nan nan nan nan nan nan nan
43 39 38 40 43 45 nan nan nan nan 44 nan 46 47 47 40 45 44 41 44 41 40 39 40 37 35 32 32 32 30 31 30 29 30 32 35 35 35 35 36 36 37 37 37 38 37 34 32 32 31 30 31 31 31 32 33 32 30 31 31 33 34 34 36 37 38 39 nan nan nan nan nan nan nan nan nan nan nan nan nan nan nan nan nan nan nan
52 42 43 nan nan nan nan nan nan 45 44 42 40 40 45 45 43 43 42 45 47 45 46 44 46 40 36 33 33 31 30 30 30 31 32 35 36 37 37 37 37 37 38 40 39 39 38 38 37 35 34 32 31 30 32 34 35 36 36 37 39 38 38 37 38 41 nan nan nan nan nan nan nan nan nan nan nan nan nan nan nan nan nan nan nan nan
nan 48 nan nan nan nan 44 48 48 45 44 nan 43 nan nan nan nan nan 43 45 47 50 47 50 50 46 42 39 36 34 32 35 33 34 34 35 38 39 40 41 40 40 40 41 41 40 41 42 41 40 nan nan nan nan nan 33 36 41 40 40 40 41 41 42 nan nan nan nan nan nan nan nan nan nan nan nan nan nan nan nan nan nan nan nan nan nan
nan nan 47 nan 48 48 nan 51 49 nan nan nan nan 41 nan nan 42 nan nan 47 50 50 49 50 49 47 46 45 43 42 41 39 36 36 35 36 39 40 40 42 42 41 41 42 42 43 43 44 45 46 nan nan nan nan nan 37 35 35 37 41 nan nan nan nan nan nan nan nan nan nan nan nan nan nan nan nan nan nan nan nan nan nan nan nan nan nan
nan nan nan nan nan nan nan nan nan nan nan 49 45 43 43 42 41 40 40 43 48 50 52 50 48 46 46 46 49 47 46 45 42 40 38 38 38 39 40 41 42 42 42 42 41 40 42 44 47 49 48 47 nan nan nan nan nan nan 38 nan nan nan nan nan nan nan nan nan nan nan nan nan nan nan nan nan nan nan nan nan nan nan nan nan nan nan
nan nan nan nan nan nan nan nan nan nan nan nan 48 44 43 42 42 42 42 42 42 45 50 53 49 45 46 45 48 47 46 47 47 46 43 42 41 41 40 41 42 45 45 43 42 40 42 44 48 51 nan nan nan nan nan nan nan nan nan nan nan nan nan nan nan nan nan nan nan nan nan nan nan nan nan nan nan nan nan nan nan nan nan nan nan nan
nan nan nan nan nan nan nan nan nan nan nan nan nan nan 44 41 41 nan 43 nan nan nan 46 49 48 45 44 44 45 46 45 46 46 46 46 45 45 44 43 42 42 44 44 nan 45 43 nan nan nan nan nan nan nan nan nan nan nan nan nan nan nan nan nan nan nan nan nan nan nan nan nan nan nan nan nan nan nan nan nan nan nan nan nan nan nan nan
nan nan nan nan nan nan nan nan nan nan nan nan nan nan 43 nan nan nan nan nan nan nan nan nan nan nan nan nan nan 37 nan 38 40 41 41 43 45 44 44 43 43 44 nan nan nan 44 43 42 41 43 nan nan nan nan nan nan nan nan nan nan nan nan nan nan nan nan nan nan nan nan nan nan nan nan nan nan nan nan nan nan nan nan nan nan nan nan
nan nan nan nan nan nan nan nan nan nan nan nan nan nan nan nan nan nan nan nan nan nan nan nan nan nan nan 28 28 30 30 31 32 33 34 37 39 40 40 41 43 43 44 44 44 nan nan 45 44 44 45 nan nan nan nan nan nan nan nan nan nan nan nan nan nan nan nan nan nan nan nan nan nan nan nan nan nan nan nan nan nan nan nan nan nan nan
Wind_Direction
77 75 70 71 70 nan nan nan 107 nan nan nan 87 86 124 nan nan nan 355 8 45 54 49 61 nan nan nan 23 26 28 25 29 29 22 28 24 20 22 25 29 38 40 32 14 30 41 55 47 57 63 67 69 63 53 48 43 39 42 35 40 43 45 54 66 72 76 84 84 77 75 75 73 71 71 66 67 74 76 74 77 71 69 71 73 78 nan
nan 74 70 nan nan nan nan nan nan nan nan 89 91 89 81 98 78 102 353 29 41 81 nan 48 32 nan 17 21 18 20 26 25 24 20 20 15 17 20 18 24 28 35 39 8 17 35 48 51 47 54 61 55 47 44 37 32 31 35 31 41 50 55 60 71 80 82 83 88 90 90 86 83 81 79 79 78 76 76 74 76 73 70 70 69 nan nan
67 nan 84 nan nan nan nan nan 50 61 65 nan 84 90 76 116 232 88 61 47 50 79 31 34 nan 22 nan 13 12 19 23 19 15 15 11 10 12 18 19 20 26 32 38 35 41 38 39 35 43 55 55 50 51 37 28 28 27 32 40 50 56 67 71 74 80 84 88 88 91 92 89 89 81 79 80 79 77 76 75 75 73 72 70 73 nan nan
83 nan nan nan nan nan nan nan nan 46 76 70 70 65 70 26 49 17 39 43 49 87 54 nan 51 nan 13 18 17 24 21 17 13 10 8 3 4 11 7 11 22 32 41 40 38 32 27 35 55 57 52 42 43 39 35 31 33 43 54 57 65 72 78 81 83 87 87 90 88 86 86 81 83 81 76 72 71 72 74 74 76 73 72 73 73 nan
nan nan nan nan nan nan nan nan 30 50 48 77 90 97 33 35 nan 75 3 24 44 59 81 52 49 25 19 21 26 25 28 20 12 6 9 10 4 10 15 14 20 36 34 47 25 16 13 31 46 54 48 36 48 47 41 41 44 63 57 63 71 78 81 84 84 85 86 82 79 80 75 73 69 69 72 73 74 75 73 74 75 74 74 72 69 67
nan nan nan nan nan nan nan nan nan nan nan 57 nan nan 35 30 13 8 342 7 33 31 32 65 63 10 13 27 20 13 19 23 12 11 9 13 14 8 17 20 18 32 34 52 35 8 5 29 49 58 48 44 54 54 53 54 56 66 69 72 78 85 87 87 84 85 84 82 81 76 72 70 71 69 74 78 79 76 76 74 69 67 69 67 66 62
nan nan nan nan nan nan nan nan nan nan 80 59 12 nan nan nan 10 1 5 29 33 25 355 25 77 338 10 17 15 8 15 16 13 18 13 13 19 14 14 10 11 18 357 33 12 353 344 10 36 47 52 53 59 60 63 65 70 72 80 82 86 92 93 89 87 82 82 80 79 75 73 74 72 69 66 68 70 73 71 68 68 68 67 64 59 62
nan nan nan nan nan nan nan nan nan nan nan nan nan nan nan 43 28 nan nan 49 90 nan 4 43 63 93 9 353 5 10 17 nan 10 18 18 14 18 18 17 20 11 9 2 2 1 341 333 1 31 36 49 66 71 70 70 83 86 81 88 90 93 97 96 91 83 78 79 77 73 69 67 67 68 68 65 67 66 69 73 74 72 69 67 71 69 64
nan nan nan nan nan nan nan nan nan nan nan nan nan nan nan nan nan nan nan 44 64 68 25 23 26 58 30 332 11 17 20 22 18 19 16 18 15 13 22 28 11 11 351 355 345 339 341 2 36 40 48 70 73 86 84 83 90 95 95 97 98 97 93 87 78 77 72 75 72 68 63 60 60 59 60 60 63 65 70 71 66 68 67 64 67 67
nan nan nan nan nan nan nan nan nan nan nan nan nan nan 93 81 75 73 74 59 nan 58 36 1 27 71 324 350 5 19 36 16 17 15 13 14 15 12 16 26 10 358 353 347 326 335 342 352 18 37 51 78 96 99 94 97 99 99 102 98 96 92 91 81 72 74 69 69 70 66 65 65 60 59 59 64 60 62 66 64 65 61 59 58 52 51
nan nan nan nan nan nan nan nan nan nan nan nan 65 59 62 71 90 96 115 115 41 49 12 nan 24 72 51 356 3 15 10 7 351 2 360 3 7 7 9 15 23 19 0 344 327 329 325 337 353 31 43 77 106 115 106 108 102 105 102 99 92 90 90 77 71 68 64 67 69 65 64 66 63 62 60 60 57 61 64 67 62 61 57 55 50 46
nan nan nan nan nan nan nan nan nan nan nan nan 78 80 70 82 75 83 93 61 67 15 294 27 36 34 67 351 360 334 nan 0 13 343 358 2 3 7 7 22 22 14 4 347 346 326 314 321 356 47 53 87 101 110 106 107 111 108 105 98 88 82 81 76 71 67 65 65 65 67 65 65 66 60 57 58 62 62 62 64 62 58 56 51 46 42
nan nan nan nan nan nan nan nan nan nan nan 108 92 66 74 28 39 93 31 30 48 204 283 295 348 16 54 64 nan nan 4 nan 5 4 339 4 5 5 15 15 20 9 5 358 353 329 334 354 8 38 66 102 106 108 103 111 118 117 109 92 83 70 69 70 63 61 60 61 60 59 57 58 55 54 55 53 57 64 62 66 62 61 56 52 47 43
nan nan nan nan nan nan nan nan nan nan nan nan 66 53 74 91 268 nan 71 nan 61 308 305 356 344 50 31 26 27 9 11 12 356 344 342 340 357 360 5 4 2 12 9 5 353 341 347 358 12 38 68 103 114 104 107 117 121 125 125 100 82 58 56 59 56 52 52 53 53 51 54 52 46 44 49 54 59 61 67 66 66 62 59 54 50 45
nan nan nan nan nan nan nan nan nan nan nan nan nan 88 157 nan 175 nan 48 nan nan 203 287 320 23 35 23 323 nan 352 nan 356 351 344 330 317 326 351 353 356 358 7 12 11 3 344 342 345 356 27 76 100 115 110 115 131 126 128 128 105 78 48 34 39 41 41 44 44 40 42 43 45 42 40 43 50 57 67 67 69 66 62 56 54 51 48
nan nan nan nan nan nan nan nan nan nan nan nan nan nan nan 343 153 168 212 159 154 198 3 343 31 35 273 nan nan nan nan nan 350 341 343 337 338 332 347 355 358 7 10 10 1 349 340 326 332 341 90 108 113 103 134 128 134 133 122 95 59 37 10 18 23 28 33 35 31 31 34 35 36 43 47 49 59 66 74 69 66 57 57 55 52 50
nan nan nan nan nan nan nan nan nan nan 168 263 nan nan 220 218 nan nan 241 193 123 nan nan 329 16 nan nan nan nan nan nan nan nan 347 nan nan nan 346 nan 1 7 7 7 5 357 355 346 330 320 310 315 144 122 115 134 149 157 142 126 27 13 11 354 2 5 17 17 20 24 21 26 29 25 35 43 50 54 71 73 74 69 64 61 56 52 50
nan nan nan nan nan nan nan nan nan nan nan nan nan 248 nan nan nan 208 183 nan nan nan 282 nan 68 331 nan 330 nan nan nan nan 357 353 nan nan 343 nan 348 1 5 10 10 8 1 353 353 346 337 315 289 292 231 235 281 288 247 227 208 280 327 339 342 345 350 2 3 3 11 12 16 23 27 31 37 50 65 71 76 69 63 59 52 48 43 40
nan nan nan nan nan nan nan nan nan nan nan nan 207 nan nan 269 335 294 nan nan nan nan nan nan nan nan nan 309 nan nan nan 1 5 nan 346 346 nan nan 345 352 353 2 5 10 8 359 359 354 352 340 312 292 279 260 262 272 260 251 255 273 291 313 322 332 330 343 342 350 352 0 7 13 19 35 48 55 82 91 82 66 56 53 47 33 21 16
nan nan nan nan nan nan nan nan nan nan nan nan nan nan nan nan 213 267 nan 176 178 nan nan 291 nan 335 nan 279 nan nan nan 0 3 2 355 350 nan nan nan 343 339 346 355 7 7 5 3 360 357 351 340 323 299 286 271 273 264 270 267 273 276 285 298 311 319 325 336 339 344 352 356 1 10 25 42 43 67 71 52 40 33 20 7 350 347 345
222 nan nan nan nan nan nan nan nan nan nan nan nan nan nan 255 nan nan 246 nan 197 nan nan nan nan 279 257 nan nan nan nan 350 356 1 355 348 nan nan nan 339 338 338 347 0 3 4 359 358 358 353 352 343 321 300 283 279 281 277 272 277 282 287 297 307 315 326 332 329 340 351 354 350 5 22 40 55 52 65 21 354 345 338 329 328 331 332
nan nan nan nan nan nan nan nan nan nan 217 nan nan nan nan 284 nan nan nan nan nan nan nan nan nan 231 250 nan nan nan nan 338 348 353 350 347 340 341 338 337 333 332 339 348 354 357 350 349 351 348 351 352 339 321 314 300 294 293 292 289 290 294 307 319 323 328 326 329 339 351 348 354 2 14 29 33 25 27 3 341 333 327 329 332 332 334
217 220 nan nan nan 234 240 nan nan nan nan 220 223 249 nan 280 nan nan nan 273 nan nan nan nan nan nan 249 230 241 252 295 nan 335 nan 343 343 332 334 334 330 326 326 331 337 344 347 342 341 346 348 351 354 352 342 336 323 313 305 305 311 307 314 322 322 322 321 323 331 344 350 352 1 9 13 17 20 16 13 4 347 337 335 338 336 334 334
nan nan nan nan 242 nan 246 nan nan nan nan nan nan 242 270 288 284 237 228 256 nan 271 nan 267 nan nan 269 255 256 260 269 272 273 311 335 336 324 325 323 322 324 321 325 331 332 333 333 335 338 343 350 355 356 351 345 337 328 319 319 331 323 329 337 331 318 313 320 332 346 352 1 6 9 9 7 6 5 5 356 343 337 333 332 329 330 328
nan nan 215 241 245 256 251 247 251 249 nan 243 263 283 279 270 276 258 256 264 nan 280 227 nan nan nan 271 267 273 265 281 298 306 306 319 318 308 313 313 316 320 319 321 329 331 330 332 336 341 345 348 356 357 353 347 347 345 340 344 352 351 336 338 328 311 317 333 348 358 355 1 4 360 359 357 357 353 346 339 334 327 324 323 323 324 323
nan 239 nan nan nan nan nan nan nan 258 nan 246 241 263 281 301 298 292 nan 289 nan 275 nan nan nan 264 268 270 273 273 273 291 292 294 303 307 311 304 300 309 315 320 324 328 329 330 335 339 341 344 347 356 357 357 351 353 355 2 9 13 15 355 335 341 318 352 4 355 356 350 355 353 352 350 349 346 338 331 327 321 320 319 320 321 320 321
229 230 232 nan nan 210 232 261 251 236 268 267 267 280 290 289 296 295 248 274 266 273 281 288 255 239 nan nan nan 277 274 285 291 292 304 310 298 295 293 302 309 316 322 328 329 329 329 336 345 347 347 357 355 3 352 356 2 16 23 24 28 32 5 357 353 357 356 348 350 349 349 348 344 338 335 330 321 316 317 316 313 316 315 318 319 319
234 234 238 240 239 209 235 242 249 259 276 265 271 289 286 291 288 295 279 256 260 nan nan 281 271 260 248 nan nan 246 267 272 278 289 299 305 304 302 295 294 299 306 314 316 323 330 338 338 339 344 345 352 355 358 357 352 2 17 25 26 24 19 9 347 351 352 349 345 343 346 342 339 332 325 320 313 312 312 311 310 311 310 312 316 317 318
235 nan 243 236 243 237 239 246 257 261 269 284 295 286 292 289 291 295 288 274 291 276 250 262 273 268 243 nan nan 231 242 257 271 284 288 289 293 293 292 297 304 312 317 324 327 328 333 336 335 340 343 345 349 349 351 347 348 0 12 18 5 355 350 337 337 344 343 339 340 338 335 323 316 310 309 311 311 310 310 310 308 311 313 314 314 nan
233 242 241 239 240 246 248 251 261 266 266 275 283 294 294 299 300 293 276 268 280 260 249 255 264 256 235 216 nan 238 246 254 260 265 271 281 291 296 297 301 308 315 323 328 326 326 330 333 330 333 333 334 340 338 336 335 332 335 338 339 337 335 331 330 332 336 334 333 331 327 325 318 311 311 312 313 313 312 312 310 311 312 313 313 nan nan
236 243 249 249 247 252 254 255 260 264 272 278 274 279 285 294 295 283 268 262 256 256 263 259 263 249 245 237 228 251 249 256 262 267 271 281 292 299 307 311 315 321 326 327 321 319 320 325 326 326 329 331 334 332 324 319 315 313 320 320 323 324 323 325 324 328 327 327 324 322 319 315 313 314 317 316 314 312 313 311 310 311 312 nan nan nan
241 241 248 251 246 255 258 261 261 263 269 275 276 278 286 290 298 289 277 277 275 268 267 266 262 267 255 247 257 259 262 266 269 268 270 275 288 298 312 319 322 323 320 322 322 318 316 320 321 326 330 331 329 327 319 311 311 308 314 317 321 318 316 318 321 327 327 326 324 321 320 316 316 318 318 316 315 314 312 309 310 310 310 nan nan nan
234 242 248 248 248 nan 262 258 263 266 268 269 271 276 285 286 282 281 282 277 289 263 258 254 248 239 256 257 238 257 261 263 262 267 272 279 288 302 310 314 319 320 314 315 317 317 318 322 322 324 322 322 321 318 320 316 313 313 314 315 314 312 314 317 317 319 323 327 329 325 322 319 318 319 316 316 314 312 310 311 311 310 nan nan nan nan
231 233 238 247 244 248 262 259 258 263 264 261 256 247 267 279 285 286 284 279 276 269 247 236 228 248 249 251 234 233 244 253 246 249 247 256 273 280 286 293 300 305 302 301 308 313 315 311 309 312 316 317 317 316 313 315 312 307 310 313 310 314 312 313 315 316 321 324 326 324 321 321 321 321 318 316 314 312 313 313 311 309 nan nan nan nan
229 234 235 240 243 nan 257 259 259 259 257 256 257 255 254 256 261 270 262 253 250 249 235 217 228 236 236 237 240 235 226 233 236 240 244 243 242 253 266 267 274 286 292 295 298 302 302 303 305 306 307 311 314 306 304 304 300 298 302 304 306 308 310 311 314 314 313 314 317 317 317 321 323 321 318 316 313 313 313 311 306 nan nan nan nan nan
239 235 239 241 242 245 nan 254 nan nan 257 259 259 256 255 263 260 266 265 257 252 248 240 235 230 233 238 238 238 238 234 235 237 243 241 238 235 230 230 244 258 270 280 284 294 295 295 299 304 307 309 308 308 307 304 298 294 298 300 300 302 301 306 310 313 312 307 306 306 310 313 318 320 318 315 313 312 313 312 307 306 nan nan nan nan nan
246 245 240 241 244 247 248 nan nan 254 262 264 262 250 245 256 255 257 264 264 249 250 243 238 234 234 236 238 236 237 241 246 258 256 240 236 233 230 230 232 237 248 254 260 269 280 286 291 298 304 300 297 301 300 298 295 296 298 299 301 301 304 304 307 310 310 307 304 304 307 310 314 316 314 313 312 311 311 308 305 nan nan nan nan nan nan
243 247 243 240 243 245 248 nan 258 258 nan 257 252 249 251 253 256 261 264 269 251 249 247 242 237 236 235 237 238 240 241 251 265 262 239 230 231 227 229 240 251 255 256 258 261 261 264 268 273 281 288 293 295 295 290 292 293 295 298 301 300 302 304 306 308 308 306 304 304 305 307 310 312 310 309 308 310 307 303 302 nan nan nan nan nan nan
241 247 252 251 247 248 nan nan nan nan 254 248 246 245 248 252 255 264 269 272 257 251 249 244 241 239 238 234 234 235 246 255 252 245 236 228 232 235 234 240 244 249 252 257 260 263 266 269 272 275 280 284 286 285 285 288 291 293 298 299 299 300 302 304 304 303 303 301 300 301 302 304 306 306 305 305 nan 299 299 nan nan nan nan nan nan nan
246 247 249 250 251 250 249 nan nan 245 248 244 241 242 244 250 nan 262 268 269 261 258 250 245 241 237 235 237 239 243 233 234 243 245 237 235 239 241 239 240 244 247 251 254 260 263 264 263 269 275 276 274 270 274 285 289 292 294 293 292 291 295 299 299 294 291 291 290 290 290 292 293 298 299 298 nan 293 292 nan nan nan nan nan nan nan nan
246 244 247 252 nan nan nan nan nan nan 251 247 244 244 246 250 254 261 263 262 262 258 254 247 243 239 237 238 238 245 243 240 242 244 242 241 242 243 245 247 250 251 252 254 257 261 269 273 273 273 275 276 276 278 282 285 286 288 286 285 288 293 288 282 282 285 286 287 287 287 289 290 292 nan nan nan nan nan nan nan nan nan nan nan nan nan
245 244 243 245 254 260 262 nan nan nan 249 249 250 251 247 248 nan nan 255 258 254 257 254 251 245 241 238 241 243 247 248 243 241 243 246 246 243 242 244 247 251 255 256 258 259 258 262 267 272 278 281 283 283 285 284 285 285 282 280 282 285 282 285 286 285 285 288 289 288 288 286 nan nan nan nan nan nan nan nan nan nan nan nan nan nan nan
234 237 245 248 247 249 nan nan nan nan 258 nan 251 253 247 246 249 251 253 256 253 252 252 252 248 241 235 240 241 244 245 246 243 241 245 248 248 246 244 243 246 249 251 252 254 255 257 262 264 266 269 274 279 284 287 290 291 290 288 288 286 284 284 282 283 286 289 nan nan nan nan nan nan nan nan nan nan nan nan nan nan nan nan nan nan nan
239 243 242 nan nan nan nan nan nan 254 254 248 252 260 254 248 248 251 252 256 252 250 249 251 248 240 236 236 235 237 241 241 242 243 243 248 253 254 253 251 250 252 253 254 256 256 259 260 259 260 260 262 266 273 279 284 286 288 289 287 283 285 285 285 285 286 nan nan nan nan nan nan nan nan nan nan nan nan nan nan nan nan nan nan nan nan
nan 245 nan nan nan nan 245 249 253 258 255 nan 253 nan nan nan nan nan 252 254 251 251 246 248 245 241 237 236 235 236 240 241 237 240 241 246 252 254 255 256 256 256 256 255 255 254 258 260 263 264 nan nan nan nan nan 274 282 286 289 287 289 291 291 289 nan nan nan nan nan nan nan nan nan nan nan nan nan nan nan nan nan nan nan nan nan nan
nan nan 241 nan 249 248 nan 246 252 nan nan nan nan 251 nan nan 248 nan nan 250 248 246 244 241 239 238 236 236 236 237 238 237 238 240 241 244 249 253 255 257 259 260 260 261 259 259 260 263 266 266 nan nan nan nan nan 254 260 272 280 284 nan nan nan nan nan nan nan nan nan nan nan nan nan nan nan nan nan nan nan nan nan nan nan nan nan nan
nan nan nan nan nan nan nan nan nan nan nan 251 250 247 246 247 248 249 250 248 245 242 239 235 233 234 233 236 236 234 235 238 238 239 241 243 246 249 250 254 258 259 260 260 261 262 265 267 268 267 267 269 nan nan nan nan nan nan 263 nan nan nan nan nan nan nan nan nan nan nan nan nan nan nan nan nan nan nan nan nan nan nan nan nan nan nan
nan nan nan nan nan nan nan nan nan nan nan nan 246 244 242 243 242 246 247 244 240 238 235 230 228 229 230 232 232 232 233 235 236 237 240 243 244 246 247 248 253 259 260 261 261 261 263 264 266 267 nan nan nan nan nan nan nan nan nan nan nan nan nan nan nan nan nan nan nan nan nan nan nan nan nan nan nan nan nan nan nan nan nan nan nan nan
nan nan nan nan nan nan nan nan nan nan nan nan nan nan 244 243 242 nan 244 nan nan nan 231 230 229 229 228 230 230 233 232 233 234 234 236 243 247 249 250 252 251 254 259 nan 262 261 nan nan nan nan nan nan nan nan nan nan nan nan nan nan nan nan nan nan nan nan nan nan nan nan nan nan nan nan nan nan nan nan nan nan nan nan nan nan nan nan
nan nan nan nan nan nan nan nan nan nan nan nan nan nan 235 nan nan nan nan nan nan nan nan nan nan nan nan nan nan 243 nan 241 239 238 237 241 245 247 250 252 253 254 nan nan nan 266 269 272 272 273 nan nan nan nan nan nan nan nan nan nan nan nan nan nan nan nan nan nan nan nan nan nan nan nan nan nan nan nan nan nan nan nan nan nan nan nan
nan nan nan nan nan nan nan nan nan nan nan nan nan nan nan nan nan nan nan nan nan nan nan nan nan nan nan 255 259 255 256 255 254 255 254 250 250 252 253 255 255 257 261 266 268 nan nan 273 276 278 280 nan nan nan nan nan nan nan nan nan nan nan nan nan nan nan nan nan nan nan nan nan nan nan nan nan nan nan nan nan nan nan nan nan nan nan